Aérodrome :
LOGIN :

S'inscrire | Disclaimer

   EN    FR    IT 

 










Légende :    VFR   VFR Marginal   IFR   IFR Intensif   IFR Très Intensif
Visi : 
Plafond : 
>= 8 km
>= 3000ft
5 à 8 km
1000 à 3000 ft
1500m à 5 km
500 à 1000 ft
800 à 1500m
200 à 500 ft
< 800m
< 200 ft
Symboles :   Orages  Brouillard  Fortes neiges  Fortes précipitations  Vent > 20 kt
SIGMETs :   Divers  Orages  Givrage  Turbulence  Onde Orograph.  Cendres Volcan.







- Altitude de l'aérodrome : 1521 ft
- Code IATA : NCY
- Voir les cartes d'approche


LFLP - Annecy

DERNIER METAR :
  • 242000Z AUTO 05002KT CAVOK 19/12 Q1018

METARs EXPIRÉS :
  • 241930Z AUTO 35004KT 310V010 CAVOK 19/11 Q1018
  • 241900Z AUTO 34005KT 300V360 CAVOK 20/11 Q1018 NOSIG
  • 241830Z AUTO 33005KT 310V010 CAVOK 21/11 Q1018 NOSIG
  • 241800Z AUTO 01004KT 330V050 CAVOK 22/11 Q1017 NOSIG
  • 241730Z AUTO 34005KT 300V020 CAVOK 23/10 Q1017 NOSIG

TAF AMD TAF LFLP
Valide du 24 à 15h jusqu'au 25 à 15h UTC


241444Z 2415/2515 36005KT CAVOK
PROB40
TEMPO 2415/2417 FEW060CB
TEMPO 2509/2515 01015G25KT
Pas de NOTAMs connus pour ce terrain.



MET'MAP, la Météo Aéronautique d'un coup d'oeil ! - Copyright ORBIFLY Décembre 2007 - Disclaimer

ORBIFLY MET'MAP TEAM :

Programmation & Développement : Alexandra Zaïnal
Conception & Développement : Baudouin d'Aumeries
Co-Programmation & Développement : Marc-Olivier Méhu
Soutien technique & logistique : Manuel Goepfert

Contact : metmap@orbifly.com




SOURCES & CREDITS :

   NOAA